Weather History for Saguache, CO

Change the Weather History Date:

Saturday, September 15, 2012

  Actual Average (KALS) Record (KALS)
Temperature  
Mean Temperature 58 °F 55 °F  
Max Temperature 78 °F 73 °F 83 °F (1956)
Min Temperature 39 °F 37 °F 24 °F (1987)
Degree Days  
Heating Degree Days 6 10  
Month to date heating degree days 110  
Since 1 July heating degree days 239  
Cooling Degree Days 0 0  
Month to date cooling degree days 0  
Year to date cooling degree days 51  
Growing Degree Days 8 (Base 50)    
Moisture  
Dew Point 27 °F    
Average Humidity 34    
Maximum Humidity 65    
Minimum Humidity 11    
Precipitation  
Precipitation 0.00 in 0.03 in 0.33 in (1999)
Month to date precipitation 0.52  
Year to date precipitation 5.47  
Snow  
Snow 0.00 in 0.00 in 0.00 in (2002)
Month to date snowfall 0.0  
Since 1 July snowfall 0.0  
Since 1 September snowfall 0.0  
Snow Depth -    
Sea Level Pressure  
Sea Level Pressure 30.42 in    
Wind  
Wind Speed 8 mph (NW)    
Max Wind Speed 16 mph    
Max Gust Speed -    
Visibility 10 miles    
Events      
T = Trace of Precipitation, MM = Missing Value Source: NWS Daily Summary

Daily Weather History Graph

Daily Weather History Graph

Search for Another Location

Airport:

Trip Planner

Search our weather history database for the weather conditions in past years. The results will help you decide how hot, cold, wet, or windy it might be!

Date:

Astronomy

Sep. 15, 2012 Rise Set
Actual Time 6:46 AM MDT 7:11 PM MDT
Civil Twilight 6:20 AM MDT 7:38 PM MDT
Nautical Twilight 5:49 AM MDT 8:09 PM MDT
Astronomical Twilight 5:17 AM MDT 8:40 PM MDT
Moon 6:20 AM MDT (9/15) 6:44 PM MDT (9/15)
Length of Visible Light 13h 17m
Length of Day
12h 24m
Waning Crescent, 0% of the Moon is Illuminated
Sep 15
Waning Crescent
Sep 15
New
Sep 22
First Quarter
Sep 29
Full
Oct 8
Last Quarter

Hourly Weather History & Observations

Time (MDT) Temp. Windchill Dew Point Humidity Pressure Visibility Wind Dir Wind Speed Gust Speed Precip Events Conditions
12:02 AM 46.4 °F 41.9 °F 30.2 °F 53% 30.50 in 10.0 mi NNW 9.2 mph - N/A   Clear
12:22 AM 46.4 °F 41.5 °F 28.4 °F 50% 30.50 in 10.0 mi NNW 10.4 mph - N/A   Clear
12:42 AM 48.2 °F - 28.4 °F 46% 30.50 in 10.0 mi NNW 12.7 mph - N/A   Clear
1:02 AM 48.2 °F - 28.4 °F 46% 30.50 in 10.0 mi NNW 11.5 mph - N/A   Clear
1:22 AM 46.4 °F 41.1 °F 28.4 °F 50% 30.50 in 10.0 mi NNW 11.5 mph - N/A   Clear
1:42 AM 46.4 °F 41.5 °F 28.4 °F 50% 30.50 in 10.0 mi NNW 10.4 mph - N/A   Clear
2:02 AM 46.4 °F 41.5 °F 28.4 °F 50% 30.50 in 10.0 mi NNW 10.4 mph - N/A   Clear
2:42 AM 44.6 °F 40.2 °F 28.4 °F 53% 30.49 in 10.0 mi NNW 8.1 mph - N/A   Clear
3:02 AM 44.6 °F 38.8 °F 28.4 °F 53% 30.48 in 10.0 mi NNW 11.5 mph - N/A   Clear
3:22 AM 42.8 °F 37.0 °F 28.4 °F 57% 30.48 in 10.0 mi NNW 10.4 mph - N/A   Clear
3:42 AM 42.8 °F 37.0 °F 28.4 °F 57% 30.48 in 10.0 mi North 10.4 mph - N/A   Clear
4:02 AM 42.8 °F 37.0 °F 28.4 °F 57% 30.48 in 10.0 mi NNW 10.4 mph - N/A   Clear
4:22 AM 44.6 °F 38.8 °F 26.6 °F 49% 30.48 in 10.0 mi NNW 11.5 mph - N/A   Clear
4:42 AM 42.8 °F - 28.4 °F 57% 30.48 in 10.0 mi Calm Calm - N/A   Clear
5:02 AM 41.0 °F 36.4 °F 28.4 °F 61% 30.48 in 10.0 mi NNW 6.9 mph - N/A   Clear
5:22 AM 42.8 °F 37.0 °F 28.4 °F 57% 30.48 in 10.0 mi North 10.4 mph - N/A   Clear
5:42 AM 41.0 °F 35.2 °F 26.6 °F 57% 30.48 in 10.0 mi NNW 9.2 mph - N/A   Clear
6:02 AM 41.0 °F 34.7 °F 28.4 °F 61% 30.49 in 10.0 mi North 10.4 mph - N/A   Clear
6:22 AM 41.0 °F 35.8 °F 28.4 °F 61% 30.50 in 10.0 mi NNW 8.1 mph - N/A   Clear
6:42 AM 39.2 °F 33.6 °F 28.4 °F 65% 30.50 in 10.0 mi NNW 8.1 mph - N/A   Clear
7:02 AM 41.0 °F 37.1 °F 28.4 °F 61% 30.50 in 10.0 mi NNW 5.8 mph - N/A   Clear
7:21 AM 42.8 °F 39.3 °F 28.4 °F 57% 30.50 in 10.0 mi NW 5.8 mph - N/A   Clear
7:41 AM 44.6 °F 40.2 °F 28.4 °F 53% 30.50 in 10.0 mi NNW 8.1 mph - N/A   Clear
8:02 AM 46.4 °F 41.9 °F 28.4 °F 50% 30.50 in 10.0 mi NNW 9.2 mph - N/A   Clear
8:21 AM 50.0 °F - 28.4 °F 43% 30.50 in 10.0 mi NNW 9.2 mph - N/A   Clear
8:42 AM 53.6 °F - 30.2 °F 41% 30.49 in 10.0 mi NW 9.2 mph - N/A   Clear
9:02 AM 53.6 °F - 26.6 °F 35% 30.49 in 10.0 mi NW 6.9 mph - N/A   Clear
9:22 AM 55.4 °F - 28.4 °F 36% 30.48 in 10.0 mi NW 4.6 mph - N/A   Clear
9:42 AM 59.0 °F - 30.2 °F 34% 30.48 in 10.0 mi Calm Calm - N/A   Clear
10:02 AM 59.0 °F - 28.4 °F 31% 30.47 in 10.0 mi SW 3.5 mph - N/A   Clear
10:22 AM 60.8 °F - 30.2 °F 31% 30.47 in 10.0 mi Calm Calm - N/A   Clear
10:42 AM 62.6 °F - 32.0 °F 32% 30.47 in 10.0 mi SSE 5.8 mph - N/A   Clear
11:02 AM 62.6 °F - 32.0 °F 32% 30.46 in 10.0 mi South 8.1 mph - N/A   Clear
11:22 AM 64.4 °F - 32.0 °F 30% 30.46 in 10.0 mi South 6.9 mph - N/A   Clear
11:42 AM 66.2 °F - 32.0 °F 28% 30.45 in 10.0 mi SSE 6.9 mph - N/A   Clear
12:02 PM 66.2 °F - 32.0 °F 28% 30.45 in 10.0 mi SSE 5.8 mph - N/A   Clear
12:22 PM 68.0 °F - 32.0 °F 26% 30.43 in 10.0 mi SSE 6.9 mph - N/A   Clear
12:42 PM 71.6 °F - 33.8 °F 25% 30.43 in 10.0 mi SSE 6.9 mph - N/A   Clear
1:02 PM 73.4 °F - 33.8 °F 23% 30.42 in 10.0 mi SSE 8.1 mph - N/A   Clear
1:22 PM 73.4 °F - 28.4 °F 19% 30.41 in 10.0 mi SSE 6.9 mph - N/A   Clear
1:42 PM 75.2 °F - 23.0 °F 14% 30.40 in 10.0 mi SSE 6.9 mph - N/A   Clear
2:02 PM 77.0 °F - 24.8 °F 14% 30.39 in 10.0 mi SSW 5.8 mph - N/A   Clear
2:21 PM 78.8 °F - 23.0 °F 13% 30.38 in 10.0 mi SSE 5.8 mph - N/A   Clear
3:02 PM 78.8 °F - 21.2 °F 12% 30.36 in 10.0 mi SSW 4.6 mph - N/A   Clear
3:22 PM 78.8 °F - 19.4 °F 11% 30.35 in 10.0 mi South 4.6 mph - N/A   Clear
3:42 PM 78.8 °F - 19.4 °F 11% 30.34 in 10.0 mi SSE 9.2 mph - N/A   Clear
4:02 PM 78.8 °F - 19.4 °F 11% 30.33 in 10.0 mi SE 4.6 mph - N/A   Clear
4:22 PM 78.8 °F - 19.4 °F 11% 30.32 in 10.0 mi SSE 8.1 mph - N/A   Clear
4:42 PM 78.8 °F - 21.2 °F 12% 30.31 in 10.0 mi SSE 6.9 mph - N/A   Clear
5:02 PM 78.8 °F - 21.2 °F 12% 30.31 in 10.0 mi SSE 6.9 mph - N/A   Clear
5:22 PM 77.0 °F - 19.4 °F 12% 30.31 in 10.0 mi South 3.5 mph - N/A   Clear
5:42 PM 73.4 °F - 24.8 °F 16% 30.31 in 10.0 mi SSE 4.6 mph - N/A   Clear
6:02 PM 73.4 °F - 28.4 °F 19% 30.31 in 10.0 mi SSE 4.6 mph - N/A   Clear
6:22 PM 73.4 °F - 26.6 °F 18% 30.31 in 10.0 mi Calm Calm - N/A   Clear
6:42 PM 71.6 °F - 24.8 °F 17% 30.31 in 10.0 mi Calm Calm - N/A   Clear
7:02 PM 66.2 °F - 30.2 °F 26% 30.32 in 10.0 mi North 4.6 mph - N/A   Clear
7:22 PM 64.4 °F - 26.6 °F 24% 30.32 in 10.0 mi NW 9.2 mph - N/A   Clear
7:42 PM 60.8 °F - 26.6 °F 27% 30.33 in 10.0 mi North 4.6 mph - N/A   Clear
8:01 PM 60.8 °F - 28.4 °F 29% 30.34 in 10.0 mi NW 8.1 mph - N/A   Clear
8:21 PM 62.6 °F - 24.8 °F 24% 30.34 in 10.0 mi NW 10.4 mph - N/A   Clear
8:42 PM 62.6 °F - 24.8 °F 24% 30.35 in 10.0 mi NNW 9.2 mph - N/A   Clear
9:02 PM 62.6 °F - 24.8 °F 24% 30.36 in 10.0 mi NNW 9.2 mph - N/A   Clear
9:22 PM 62.6 °F - 24.8 °F 24% 30.36 in 10.0 mi NNW 6.9 mph - N/A   Clear
9:42 PM 62.6 °F - 24.8 °F 24% 30.36 in 10.0 mi NW 12.7 mph - N/A   Clear
10:02 PM 60.8 °F - 24.8 °F 25% 30.36 in 10.0 mi NW 13.8 mph - N/A   Clear
10:22 PM 60.8 °F - 23.0 °F 23% 30.36 in 10.0 mi NW 16.1 mph - N/A   Clear
10:42 PM 60.8 °F - 24.8 °F 25% 30.37 in 10.0 mi NNW 12.7 mph - N/A   Clear
11:01 PM 60.8 °F - 23.0 °F 23% 30.36 in 10.0 mi NNW 16.1 mph - N/A   Clear
11:22 PM 60.8 °F - 24.8 °F 25% 30.36 in 10.0 mi NNW 12.7 mph - N/A   Clear
11:42 PM 59.0 °F - 24.8 °F 27% 30.37 in 10.0 mi North 10.4 mph - N/A   Clear